Location: Aufkirchen
(47.9603°N, 11.3653°E)
Time: 00:40:06
(UTC+01:00)

Transit 2A Rocket - Pass Details

Date: 07 December 2020
Orbit: 592 x 911 km, 66.7° (Epoch: 20 January)

Event Time Altitude Azimuth Distance (km) Brightness Sun altitude
Rises 03:59:36 0° 298° (WNW) 3,359 - -37.6°
Reaches altitude 10° 04:04:54 10° 340° (NNW) 2,324 - -36.7°
Maximum altitude 04:05:37 10° 348° (NNW) 2,293 - -36.6°
Drops below altitude 10° 04:06:20 10° 356° (N) 2,295 - -36.5°
Exits shadow 04:08:27 - 18° (NNE) 2,495 7.9 -36.1°
Sets 04:11:18 0° 39° (NE) 3,111 8.7 -35.6°
